Weather History for Salida, CO

Change the Weather History Date:

Friday, November 16, 2012

  Actual Average (KGUC) Record (KGUC)
Temperature  
Mean Temperature 38 °F -  
Max Temperature 54 °F 39 °F 57 °F (1999)
Min Temperature 23 °F 12 °F -2 °F (2000)
Degree Days  
Heating Degree Days 26    
Moisture  
Dew Point 14 °F    
Average Humidity 43    
Maximum Humidity 83    
Minimum Humidity 16    
Precipitation  
Precipitation 0.00 in - - ()
Sea Level Pressure  
Sea Level Pressure 30.35 in    
Wind  
Wind Speed 6 mph (West)    
Max Wind Speed 18 mph    
Max Gust Speed 25 mph    
Visibility 10 miles    
Events      
Averages and records for this station are not official NWS values.
T = Trace of Precipitation, MM = Missing Value Source: NWS Daily Summary

Daily Weather History Graph

Daily Weather History Graph

Search for Another Location

Airport:

Trip Planner

Search our weather history database for the weather conditions in past years. The results will help you decide how hot, cold, wet, or windy it might be!

Date:

Astronomy

Nov. 16, 2012 Rise Set
Actual Time 6:47 AM MST 4:50 PM MST
Civil Twilight 6:19 AM MST 5:18 PM MST
Nautical Twilight 5:47 AM MST 5:50 PM MST
Astronomical Twilight 5:15 AM MST 6:22 PM MST
Moon 9:44 AM MST (11/16) 7:53 PM MST (11/16)
Length of Visible Light 10h 59m
Length of Day
10h 02m
Waxing Crescent, 12% of the Moon is Illuminated
Nov 16
Waxing Crescent
Nov 20
First Quarter
Nov 28
Full
Dec 6
Last Quarter
Dec 13
New

Hourly Weather History & Observations

Time (MST) Temp. Windchill Dew Point Humidity Pressure Visibility Wind Dir Wind Speed Gust Speed Precip Events Conditions
12:15 AM 25.5 °F 18.7 °F 19.9 °F 79% 30.46 in 10.0 mi WSW 5.8 mph - N/A   Clear
12:35 AM 23.9 °F 19.5 °F 19.2 °F 82% 30.45 in 10.0 mi WNW 3.5 mph - N/A   Clear
12:55 AM 24.6 °F 18.8 °F 20.1 °F 83% 30.45 in 10.0 mi WNW 4.6 mph - N/A   Clear
1:15 AM 25.9 °F 20.3 °F 21.0 °F 82% 30.45 in 10.0 mi NW 4.6 mph - N/A   Clear
1:35 AM 24.4 °F 17.5 °F 19.8 °F 82% 30.45 in 10.0 mi West 5.8 mph - N/A   Clear
1:55 AM 23.2 °F 18.7 °F 18.5 °F 82% 30.45 in 10.0 mi West 3.5 mph - N/A   Clear
2:15 AM 25.2 °F 20.9 °F 19.6 °F 79% 30.45 in 10.0 mi West 3.5 mph - N/A   Clear
2:35 AM 24.4 °F 18.6 °F 18.5 °F 78% 30.45 in 10.0 mi WNW 4.6 mph - N/A   Clear
2:55 AM 26.1 °F 18.4 °F 19.0 °F 75% 30.44 in 10.0 mi NW 6.9 mph - N/A   Clear
3:15 AM 25.5 °F 17.8 °F 17.6 °F 72% 30.43 in 10.0 mi WNW 6.9 mph - N/A   Clear
3:35 AM 25.7 °F 18.0 °F 18.0 °F 73% 30.43 in 10.0 mi NW 6.9 mph - N/A   Clear
3:55 AM 26.4 °F 18.0 °F 18.5 °F 72% 30.42 in 10.0 mi NW 8.1 mph - N/A   Clear
4:15 AM 25.7 °F - 18.0 °F 73% 30.42 in 10.0 mi Calm Calm - N/A   Clear
4:55 AM 23.7 °F 17.8 °F 17.1 °F 76% 30.42 in 10.0 mi WNW 4.6 mph - N/A   Clear
5:15 AM 24.1 °F - 17.4 °F 76% 30.41 in 10.0 mi Calm Calm - N/A   Clear
5:55 AM 24.8 °F - 16.3 °F 70% 30.41 in 10.0 mi Calm Calm - N/A   Clear
6:15 AM 24.8 °F 19.1 °F 15.4 °F 68% 30.40 in 10.0 mi NNW 4.6 mph - N/A   Clear
6:35 AM 25.0 °F - 15.8 °F 68% 30.41 in 10.0 mi Calm Calm - N/A   Clear
6:55 AM 25.7 °F 19.0 °F 15.4 °F 65% 30.41 in 10.0 mi NW 5.8 mph - N/A   Clear
7:15 AM 26.2 °F 17.8 °F 15.1 °F 63% 30.41 in 10.0 mi NNW 8.1 mph - N/A   Clear
7:55 AM 27.5 °F 20.2 °F 14.5 °F 58% 30.42 in 10.0 mi NW 6.9 mph - N/A   Clear
8:15 AM 29.1 °F 22.1 °F 14.5 °F 55% 30.42 in 10.0 mi NW 6.9 mph - N/A   Clear
8:55 AM 31.6 °F - 14.9 °F 50% 30.41 in 10.0 mi Calm Calm - N/A   Clear
9:15 AM 35.2 °F 30.3 °F 14.0 °F 42% 30.40 in 10.0 mi NNW 5.8 mph - N/A   Clear
9:55 AM 39.0 °F 34.0 °F 13.8 °F 36% 30.39 in 10.0 mi NNW 6.9 mph - N/A   Scattered Clouds
10:15 AM 41.9 °F 38.2 °F 12.9 °F 31% 30.39 in 10.0 mi NNW 5.8 mph - N/A   Clear
10:35 AM 43.7 °F 41.1 °F 14.4 °F 31% 30.38 in 10.0 mi NE 4.6 mph - N/A   Clear
10:55 AM 44.6 °F 43.1 °F 12.4 °F 27% 30.37 in 10.0 mi NNE 3.5 mph - N/A   Clear
11:15 AM 47.3 °F - 12.2 °F 24% 30.35 in 10.0 mi Calm Calm - N/A   Clear
11:35 AM 49.1 °F - 12.2 °F 23% 30.34 in 10.0 mi North 3.5 mph - N/A   Clear
11:55 AM 52.2 °F - 10.8 °F 19% 30.32 in 10.0 mi SSE 11.5 mph 19.6 mph N/A   Clear
12:15 PM 50.9 °F - 10.0 °F 19% 30.31 in 10.0 mi SSE 11.5 mph 19.6 mph N/A   Clear
12:35 PM 51.8 °F - 10.6 °F 19% 30.31 in 10.0 mi South 11.5 mph 20.7 mph N/A   Clear
12:55 PM 53.2 °F - 10.9 °F 18% 30.30 in 10.0 mi South 16.1 mph 23.0 mph N/A   Clear
1:15 PM 52.9 °F - 10.0 °F 18% 30.29 in 10.0 mi South 15.0 mph 25.3 mph N/A   Clear
1:55 PM 54.0 °F - 8.4 °F 16% 30.28 in 10.0 mi South 15.0 mph 21.9 mph N/A   Clear
2:15 PM 53.4 °F - 9.3 °F 17% 30.27 in 10.0 mi South 13.8 mph 23.0 mph N/A   Clear
2:35 PM 53.6 °F - 8.8 °F 17% 30.27 in 10.0 mi South 18.4 mph 23.0 mph N/A   Clear
2:55 PM 53.2 °F - 8.4 °F 17% 30.27 in 10.0 mi South 12.7 mph 21.9 mph N/A   Clear
3:15 PM 52.9 °F - 9.3 °F 17% 30.28 in 10.0 mi South 10.4 mph 19.6 mph N/A   Clear
3:35 PM 52.0 °F - 9.1 °F 18% 30.28 in 10.0 mi South 12.7 mph 19.6 mph N/A   Clear
3:55 PM 50.9 °F - 9.5 °F 19% 30.27 in 10.0 mi South 13.8 mph 20.7 mph N/A   Clear
4:15 PM 49.5 °F - 9.5 °F 20% 30.27 in 10.0 mi South 12.7 mph 19.6 mph N/A   Clear
4:55 PM 47.8 °F - 9.7 °F 21% 30.27 in 10.0 mi South 17.3 mph 25.3 mph N/A   Clear
5:15 PM 47.7 °F - 10.6 °F 22% 30.28 in 10.0 mi South 15.0 mph 24.2 mph N/A   Clear
5:35 PM 47.3 °F - 11.1 °F 23% 30.29 in 10.0 mi South 12.7 mph 18.4 mph N/A   Clear
5:55 PM 46.4 °F 41.1 °F 11.3 °F 24% 30.29 in 10.0 mi SSW 11.5 mph 18.4 mph N/A   Clear
6:15 PM 45.3 °F 40.1 °F 11.7 °F 26% 30.29 in 10.0 mi SSW 10.4 mph - N/A   Clear
6:35 PM 44.1 °F 41.5 °F 12.0 °F 27% 30.29 in 10.0 mi SSW 4.6 mph - N/A   Clear
6:55 PM 43.7 °F 41.1 °F 12.2 °F 28% 30.29 in 10.0 mi WSW 4.6 mph - N/A   Clear
7:15 PM 42.8 °F - 12.2 °F 29% 30.29 in 10.0 mi Calm Calm - N/A   Clear
7:35 PM 39.7 °F - 11.5 °F 31% 30.29 in 10.0 mi Calm Calm - N/A   Clear
7:55 PM 39.7 °F 34.9 °F 12.0 °F 32% 30.29 in 7.0 mi WNW 6.9 mph - N/A   Clear
8:15 PM 40.1 °F 36.1 °F 12.6 °F 33% 30.29 in 10.0 mi West 5.8 mph - N/A   Clear
8:35 PM 37.9 °F 35.5 °F 12.6 °F 35% 30.29 in 10.0 mi WSW 3.5 mph - N/A   Clear
8:55 PM 40.8 °F 36.9 °F 13.1 °F 32% 30.30 in 10.0 mi West 5.8 mph - N/A   Clear
9:15 PM 37.8 °F 33.3 °F 11.5 °F 34% 30.30 in 10.0 mi NNW 5.8 mph - N/A   Clear
9:35 PM 36.9 °F 33.1 °F 12.0 °F 36% 30.30 in 10.0 mi NNW 4.6 mph - N/A   Clear
9:55 PM 36.0 °F - 11.7 °F 37% 30.30 in 10.0 mi Calm Calm - N/A   Clear
10:15 PM 36.5 °F 31.8 °F 11.8 °F 36% 30.29 in 10.0 mi NNW 5.8 mph - N/A   Clear
10:35 PM 35.8 °F 30.1 °F 12.2 °F 38% 30.29 in 10.0 mi NNW 6.9 mph - N/A   Clear
10:55 PM 36.3 °F 30.8 °F 12.9 °F 38% 30.29 in 10.0 mi NNW 6.9 mph - N/A   Clear
11:15 PM 37.2 °F 32.6 °F 13.3 °F 37% 30.29 in 10.0 mi North 5.8 mph - N/A   Clear
11:35 PM 34.9 °F 28.3 °F 12.7 °F 40% 30.29 in 10.0 mi North 8.1 mph - N/A   Clear
11:55 PM 34.9 °F 29.0 °F 12.9 °F 40% 30.29 in 10.0 mi North 6.9 mph - N/A   Clear